User: anonymous
Location: Young's Pond
(41.2695°N, 72.7766°W)
Time: 00:32:46
(UTC-04:00)
Language:

Spot 4 - Orbit

View from above orbital plane
View from above orbital plane
View from above satellite
View from above satellite

Ground track
Ground track

The orbit data is extracted from the following two-line orbital elements,

1 25260U 98017A   14110.21038328  .00000689  00000-0  17841-3 0  3175
2 25260 098.4667 173.5152 0012484 207.9716 152.0810 14.52940183834247
Epoch (UTC): 20 April 2014 05:02:57
Eccentricity: 0.0012484
inclination: 98.4667°
perigee height: 707 km
apogee height: 725 km
right ascension of ascending node: 173.5152°
argument of perigee: 207.9716°
revolutions per day: 14.52940183
mean anomaly at epoch: 152.0810°
orbit number at epoch: 83424

The dashed part of the orbit path shows where the satellite is in the earth's shadow,  

DLR